| time (UTC) | temp C | wind direction | speed KPH | gust KPH | rain 1hr cm | rain 24hr cm | rain mn cm | humidity % | barometer mb |
| 20260503210801 | 27 | 319 | 4.8 | 11.3 | 0.00 | 0.00 | 0.00 | 39 | 1015.9 |
| 20260503210300 | 26 | 297 | 3.2 | 16.1 | 0.00 | 0.00 | 0.00 | 40 | 1015.8 |
| 20260503205754 | 26 | 292 | 12.9 | 16.1 | 0.00 | 0.00 | 0.00 | 39 | 1016.0 |
| 20260503205251 | 26 | 258 | 0.0 | 4.8 | 0.00 | 0.00 | 0.00 | 41 | 1016.1 |
| 20260503204748 | 27 | 238 | 0.0 | 4.8 | 0.00 | 0.00 | 0.00 | 39 | 1016.3 |
| 20260503204245 | 27 | 164 | 0.0 | 8.0 | 0.00 | 0.00 | 0.00 | 40 | 1016.2 |
| 20260503203742 | 26 | 213 | 0.0 | 4.8 | 0.00 | 0.00 | 0.00 | 41 | 1016.3 |
| 20260503203240 | 26 | 271 | 0.0 | 8.0 | 0.00 | 0.00 | 0.00 | 43 | 1016.4 |
| 20260503202737 | 26 | 288 | 4.8 | 11.3 | 0.00 | 0.00 | 0.00 | 41 | 1016.7 |
| 20260503202235 | 26 | 305 | 1.6 | 8.0 | 0.00 | 0.00 | 0.00 | 42 | 1016.4 |
| 20260503201732 | 26 | 263 | 0.0 | 0.0 | 0.00 | 0.00 | 0.00 | 42 | 1016.4 |
| 20260503201230 | 26 | 294 | 12.9 | 16.1 | 0.00 | 0.00 | 0.00 | 40 | 1016.7 |
| 20260503200726 | 27 | 34 | 0.0 | 0.0 | 0.00 | 0.00 | 0.00 | 37 | 1016.5 |
| 20260503200222 | 27 | 145 | 0.0 | 0.0 | 0.00 | 0.00 | 0.00 | 38 | 1016.7 |
| 20260503195719 | 27 | 263 | 0.0 | 0.0 | 0.00 | 0.00 | 0.00 | 38 | 1016.9 |
| 20260503195216 | 27 | 235 | 0.0 | 4.8 | 0.00 | 0.00 | 0.00 | 38 | 1016.9 |
| 20260503194713 | 27 | 235 | 0.0 | 4.8 | 0.00 | 0.00 | 0.00 | 38 | 1017.1 |
| 20260503194209 | 26 | 227 | 0.0 | 11.3 | 0.00 | 0.00 | 0.00 | 40 | 1017.0 |
| 20260503193706 | 26 | 34 | 0.0 | 8.0 | 0.00 | 0.00 | 0.00 | 41 | 1016.9 |
| 20260503193202 | 26 | 66 | 0.0 | 0.0 | 0.00 | 0.00 | 0.00 | 39 | 1017.2 |
| 20260503192657 | 27 | 269 | 0.0 | 0.0 | 0.00 | 0.00 | 0.00 | 40 | 1017.4 |
| 20260503192153 | 26 | 258 | 0.0 | 0.0 | 0.00 | 0.00 | 0.00 | 42 | 1017.2 |
| 20260503191650 | 26 | 232 | 0.0 | 0.0 | 0.00 | 0.00 | 0.00 | 41 | 1017.3 |
| 20260503191147 | 25 | 231 | 0.0 | 8.0 | 0.00 | 0.00 | 0.00 | 46 | 1017.4 |
| 20260503190644 | 24 | 221 | 0.0 | 16.1 | 0.00 | 0.00 | 0.00 | 47 | 1017.7 |
| 20260503190140 | 25 | 256 | 6.4 | 16.1 | 0.00 | 0.00 | 0.00 | 44 | 1017.5 |
| 20260503185637 | 25 | 266 | 0.0 | 19.3 | 0.00 | 0.00 | 0.00 | 45 | 1017.6 |
| 20260503185132 | 25 | 306 | 3.2 | 8.0 | 0.00 | 0.00 | 0.00 | 43 | 1017.8 |
| 20260503184628 | 24 | 284 | 4.8 | 11.3 | 0.00 | 0.00 | 0.00 | 46 | 1017.8 |
| 20260503184125 | 23 | 279 | 9.7 | 19.3 | 0.00 | 0.00 | 0.00 | 47 | 1017.9 |
| 20260503183621 | 24 | 238 | 0.0 | 0.0 | 0.00 | 0.00 | 0.00 | 46 | 1017.8 |
| 20260503183118 | 24 | 257 | 0.0 | 4.8 | 0.00 | 0.00 | 0.00 | 46 | 1017.9 |
| 20260503182617 | 23 | 247 | 0.0 | 11.3 | 0.00 | 0.00 | 0.00 | 48 | 1018.0 |
| 20260503182115 | 23 | 268 | 3.2 | 8.0 | 0.00 | 0.00 | 0.00 | 46 | 1018.0 |
| 20260503181611 | 23 | 230 | 0.0 | 8.0 | 0.00 | 0.00 | 0.00 | 45 | 1018.0 |
| 20260503181108 | 23 | 244 | 0.0 | 0.0 | 0.00 | 0.00 | 0.00 | 46 | 1018.2 |
| 20260503180605 | 22 | 271 | 1.6 | 11.3 | 0.00 | 0.00 | 0.00 | 46 | 1018.0 |
| 20260503180103 | 23 | 256 | 0.0 | 0.0 | 0.00 | 0.00 | 0.00 | 47 | 1018.0 |
| 20260503175559 | 22 | 272 | 6.4 | 11.3 | 0.00 | 0.00 | 0.00 | 49 | 1018.0 |
| 20260503175057 | 22 | 295 | 0.0 | 11.3 | 0.00 | 0.00 | 0.00 | 49 | 1018.2 |
| 20260503174554 | 22 | 273 | 0.0 | 8.0 | 0.00 | 0.00 | 0.00 | 49 | 1018.2 |
| 20260503174050 | 21 | 272 | 0.0 | 11.3 | 0.00 | 0.00 | 0.00 | 50 | 1018.3 |
| 20260503173545 | 23 | 314 | 0.0 | 4.8 | 0.00 | 0.00 | 0.00 | 48 | 1018.2 |
| 20260503173042 | 23 | 245 | 0.0 | 0.0 | 0.00 | 0.00 | 0.00 | 46 | 1018.2 |
| 20260503172539 | 22 | 119 | 0.0 | 0.0 | 0.00 | 0.00 | 0.00 | 50 | 1018.4 |
| 20260503172036 | 21 | 289 | 0.0 | 0.0 | 0.00 | 0.00 | 0.00 | 52 | 1018.5 |
| 20260503171533 | 22 | 315 | 0.0 | 8.0 | 0.00 | 0.00 | 0.00 | 52 | 1018.5 |
| 20260503171030 | 21 | 231 | 0.0 | 0.0 | 0.00 | 0.00 | 0.00 | 53 | 1018.5 |
| 20260503170526 | 21 | 263 | 0.0 | 0.0 | 0.00 | 0.00 | 0.00 | 56 | 1018.5 |
| 20260503150918 | 14 | 185 | 0.0 | 0.0 | 0.00 | 0.00 | 0.00 | 79 | 1019.0 |
| 20260503150415 | 14 | 184 | 0.0 | 0.0 | 0.00 | 0.00 | 0.00 | 79 | 1019.1 |
| 20260503131308 | 10 | 139 | 0.0 | 0.0 | 0.00 | 0.00 | 0.00 | 94 | 1018.6 |
| 20260503130806 | 10 | 179 | 0.0 | 0.0 | 0.00 | 0.00 | 0.00 | 94 | 1018.6 |
| 20260503130303 | 10 | 171 | 0.0 | 0.0 | 0.00 | 0.00 | 0.00 | 94 | 1018.7 |
| 20260503110657 | 11 | 183 | 0.0 | 0.0 | 0.00 | 0.00 | 0.00 | 87 | 1018.8 |
| 20260503110154 | 11 | 183 | 0.0 | 0.0 | 0.00 | 0.00 | 0.00 | 87 | 1019.0 |
| 20260503100121 | 12 | 215 | 0.0 | 0.0 | 0.00 | 0.00 | 0.00 | 85 | 1018.9 |
| 20260503081510 | 13 | 150 | 0.0 | 0.0 | 0.00 | 0.00 | 0.00 | 81 | 1019.2 |
| 20260503081007 | 13 | 155 | 0.0 | 0.0 | 0.00 | 0.00 | 0.00 | 80 | 1019.0 |
| 20260503080503 | 13 | 153 | 0.0 | 0.0 | 0.00 | 0.00 | 0.00 | 80 | 1019.1 |
| 20260503072939 | 14 | 139 | 0.0 | 0.0 | 0.00 | 0.00 | 0.00 | 78 | 1019.0 |
| 20260503072437 | 14 | 155 | 0.0 | 0.0 | 0.00 | 0.00 | 0.00 | 78 | 1018.8 |
| 20260503071934 | 15 | 178 | 0.0 | 0.0 | 0.00 | 0.00 | 0.00 | 77 | 1018.9 |
| 20260503071431 | 15 | 168 | 0.0 | 0.0 | 0.00 | 0.00 | 0.00 | 77 | 1018.8 |
| 20260503070927 | 15 | 140 | 1.6 | 4.8 | 0.00 | 0.00 | 0.00 | 76 | 1018.9 |
| 20260503070424 | 15 | 174 | 0.0 | 0.0 | 0.00 | 0.00 | 0.00 | 75 | 1019.0 |
| 20260503054838 | 16 | 175 | 0.0 | 0.0 | 0.00 | 0.00 | 0.00 | 67 | 1018.3 |
| 20260503054334 | 16 | 150 | 0.0 | 0.0 | 0.00 | 0.00 | 0.00 | 67 | 1018.4 |
| 20260503053832 | 16 | 199 | 0.0 | 0.0 | 0.00 | 0.00 | 0.00 | 67 | 1018.3 |
| 20260503053330 | 16 | 171 | 0.0 | 0.0 | 0.00 | 0.00 | 0.00 | 67 | 1018.4 |
| 20260503052826 | 16 | 170 | 0.0 | 0.0 | 0.00 | 0.00 | 0.00 | 66 | 1018.4 |
| 20260503052323 | 16 | 171 | 0.0 | 0.0 | 0.00 | 0.00 | 0.00 | 66 | 1018.5 |
| 20260503051819 | 17 | 177 | 0.0 | 0.0 | 0.00 | 0.00 | 0.00 | 66 | 1018.5 |
| 20260503051316 | 17 | 196 | 0.0 | 0.0 | 0.00 | 0.00 | 0.00 | 65 | 1018.4 |
| 20260503050812 | 17 | 169 | 0.0 | 0.0 | 0.00 | 0.00 | 0.00 | 65 | 1018.4 |
| 20260503050309 | 17 | 144 | 0.0 | 0.0 | 0.00 | 0.00 | 0.00 | 63 | 1018.3 |
| 20260503045806 | 17 | 217 | 0.0 | 0.0 | 0.00 | 0.00 | 0.00 | 61 | 1018.2 |
| 20260503045305 | 17 | 217 | 0.0 | 0.0 | 0.00 | 0.00 | 0.00 | 60 | 1018.5 |
| 20260503044800 | 17 | 217 | 0.0 | 0.0 | 0.00 | 0.00 | 0.00 | 59 | 1018.3 |
| 20260503044257 | 18 | 210 | 0.0 | 0.0 | 0.00 | 0.00 | 0.00 | 58 | 1018.2 |
| 20260503043755 | 18 | 210 | 0.0 | 0.0 | 0.00 | 0.00 | 0.00 | 57 | 1018.4 |
| 20260503043251 | 18 | 219 | 0.0 | 0.0 | 0.00 | 0.00 | 0.00 | 55 | 1018.2 |
| 20260503042747 | 19 | 236 | 0.0 | 0.0 | 0.00 | 0.00 | 0.00 | 54 | 1018.3 |
| 20260503042244 | 19 | 238 | 0.0 | 0.0 | 0.00 | 0.00 | 0.00 | 53 | 1018.1 |
| 20260503041740 | 19 | 277 | 0.0 | 0.0 | 0.00 | 0.00 | 0.00 | 53 | 1018.1 |
| 20260503041238 | 19 | 240 | 0.0 | 0.0 | 0.00 | 0.00 | 0.00 | 55 | 1018.2 |
| 20260503040736 | 19 | 237 | 0.0 | 0.0 | 0.00 | 0.00 | 0.00 | 54 | 1018.0 |
| 20260503040233 | 20 | 235 | 0.0 | 0.0 | 0.00 | 0.00 | 0.00 | 54 | 1017.8 |
| 20260503035729 | 20 | 235 | 0.0 | 0.0 | 0.00 | 0.00 | 0.00 | 53 | 1017.8 |
| 20260503035227 | 20 | 231 | 0.0 | 0.0 | 0.00 | 0.00 | 0.00 | 53 | 1017.9 |
| 20260503034724 | 20 | 247 | 0.0 | 0.0 | 0.00 | 0.00 | 0.00 | 53 | 1017.6 |
| 20260503034221 | 20 | 245 | 0.0 | 0.0 | 0.00 | 0.00 | 0.00 | 53 | 1017.7 |
| 20260503033719 | 20 | 242 | 0.0 | 0.0 | 0.00 | 0.00 | 0.00 | 53 | 1017.6 |
| 20260503033216 | 21 | 271 | 0.0 | 4.8 | 0.00 | 0.00 | 0.00 | 52 | 1017.5 |
| 20260503032714 | 21 | 269 | 0.0 | 0.0 | 0.00 | 0.00 | 0.00 | 52 | 1017.6 |
| 20260503032213 | 21 | 237 | 0.0 | 4.8 | 0.00 | 0.00 | 0.00 | 52 | 1017.5 |
| 20260503031709 | 21 | 223 | 0.0 | 4.8 | 0.00 | 0.00 | 0.00 | 51 | 1017.4 |
| 20260503031208 | 21 | 225 | 0.0 | 11.3 | 0.00 | 0.00 | 0.00 | 51 | 1017.4 |
| 20260503030703 | 21 | 229 | 0.0 | 8.0 | 0.00 | 0.00 | 0.00 | 50 | 1017.1 |
| 20260503030200 | 21 | 261 | 0.0 | 0.0 | 0.00 | 0.00 | 0.00 | 50 | 1017.3 |
| 20260503025657 | 22 | 238 | 0.0 | 0.0 | 0.00 | 0.00 | 0.00 | 50 | 1017.1 |
| 20260503025154 | 22 | 276 | 0.0 | 0.0 | 0.00 | 0.00 | 0.00 | 49 | 1017.2 |
| 20260503024650 | 22 | 252 | 9.7 | 16.1 | 0.00 | 0.00 | 0.00 | 49 | 1017.1 |
| 20260503024148 | 22 | 291 | 0.0 | 4.8 | 0.00 | 0.00 | 0.00 | 49 | 1017.2 |
| 20260503023645 | 22 | 226 | 0.0 | 4.8 | 0.00 | 0.00 | 0.00 | 49 | 1017.2 |
| 20260503023142 | 22 | 245 | 0.0 | 0.0 | 0.00 | 0.00 | 0.00 | 48 | 1016.9 |
| 20260503022637 | 22 | 224 | 0.0 | 0.0 | 0.00 | 0.00 | 0.00 | 48 | 1016.9 |
| 20260503022132 | 23 | 295 | 0.0 | 0.0 | 0.00 | 0.00 | 0.00 | 47 | 1017.0 |
| 20260503021629 | 23 | 274 | 0.0 | 0.0 | 0.00 | 0.00 | 0.00 | 47 | 1017.1 |
| 20260503021126 | 23 | 273 | 3.2 | 11.3 | 0.00 | 0.00 | 0.00 | 47 | 1016.9 |
| 20260503020623 | 23 | 275 | 4.8 | 8.0 | 0.00 | 0.00 | 0.00 | 46 | 1016.9 |
| 20260503020120 | 23 | 292 | 6.4 | 11.3 | 0.00 | 0.00 | 0.00 | 46 | 1017.0 |
| 20260503015617 | 23 | 243 | 0.0 | 4.8 | 0.00 | 0.00 | 0.00 | 46 | 1017.0 |
| 20260503015114 | 23 | 214 | 0.0 | 8.0 | 0.00 | 0.00 | 0.00 | 46 | 1016.9 |
| 20260503014609 | 23 | 268 | 0.0 | 16.1 | 0.00 | 0.00 | 0.00 | 45 | 1017.1 |
| 20260503014107 | 23 | 264 | 9.7 | 16.1 | 0.00 | 0.00 | 0.00 | 46 | 1017.0 |
| 20260503013605 | 23 | 214 | 0.0 | 0.0 | 0.00 | 0.00 | 0.00 | 46 | 1017.0 |
| 20260503013103 | 23 | 249 | 0.0 | 16.1 | 0.00 | 0.00 | 0.00 | 46 | 1016.9 |
| 20260503012600 | 23 | 232 | 0.0 | 0.0 | 0.00 | 0.00 | 0.00 | 46 | 1017.3 |
| 20260503012056 | 23 | 292 | 0.0 | 0.0 | 0.00 | 0.00 | 0.00 | 45 | 1017.0 |
| 20260503011552 | 24 | 274 | 0.0 | 0.0 | 0.00 | 0.00 | 0.00 | 45 | 1017.1 |
| 20260503011050 | 24 | 262 | 4.8 | 11.3 | 0.00 | 0.00 | 0.00 | 44 | 1017.2 |
| 20260503010546 | 25 | 264 | 0.0 | 8.0 | 0.00 | 0.00 | 0.00 | 43 | 1017.2 |
| 20260503010044 | 25 | 267 | 1.6 | 11.3 | 0.00 | 0.00 | 0.00 | 42 | 1017.2 |
| 20260503005541 | 25 | 348 | 8.0 | 16.1 | 0.00 | 0.00 | 0.00 | 42 | 1017.1 |
| 20260503005038 | 25 | 291 | 9.7 | 16.1 | 0.00 | 0.00 | 0.00 | 41 | 1017.3 |
| 20260503004534 | 25 | 271 | 8.0 | 16.1 | 0.00 | 0.00 | 0.00 | 41 | 1017.3 |
| 20260503004032 | 25 | 210 | 0.0 | 11.3 | 0.00 | 0.00 | 0.00 | 42 | 1017.2 |
| 20260503003528 | 25 | 284 | 12.9 | 19.3 | 0.00 | 0.00 | 0.00 | 41 | 1017.3 |
| 20260503003026 | 25 | 282 | 11.3 | 16.1 | 0.00 | 0.00 | 0.00 | 41 | 1017.2 |
| 20260503002523 | 25 | 250 | 3.2 | 24.1 | 0.00 | 0.00 | 0.00 | 42 | 1017.3 |
| 20260503002020 | 26 | 69 | 0.0 | 8.0 | 0.00 | 0.00 | 0.00 | 41 | 1017.3 |
| 20260503001516 | 26 | 257 | 1.6 | 4.8 | 0.00 | 0.00 | 0.00 | 40 | 1017.3 |
| 20260503001013 | 26 | 167 | 1.6 | 4.8 | 0.00 | 0.00 | 0.00 | 41 | 1017.3 |
| 20260503000511 | 25 | 260 | 0.0 | 8.0 | 0.00 | 0.00 | 0.00 | 41 | 1017.4 |
| 20260503000008 | 25 | 276 | 0.0 | 8.0 | 0.00 | 0.00 | 0.00 | 42 | 1017.3 |
| 20260502235504 | 25 | 280 | 0.0 | 11.3 | 0.00 | 0.00 | 0.00 | 42 | 1017.5 |
| 20260502235002 | 25 | 289 | 11.3 | 16.1 | 0.00 | 0.00 | 0.00 | 42 | 1017.3 |
| 20260502234458 | 25 | 275 | 4.8 | 11.3 | 0.00 | 0.00 | 0.00 | 43 | 1017.5 |
| 20260502233955 | 25 | 248 | 0.0 | 0.0 | 0.00 | 0.00 | 0.00 | 41 | 1017.5 |
| 20260502233450 | 25 | 298 | 8.0 | 16.1 | 0.00 | 0.00 | 0.00 | 42 | 1017.6 |
| 20260502232947 | 25 | 278 | 6.4 | 11.3 | 0.00 | 0.00 | 0.00 | 42 | 1017.8 |
| 20260502232444 | 26 | 228 | 0.0 | 4.8 | 0.00 | 0.00 | 0.00 | 42 | 1018.0 |
| 20260502231941 | 26 | 256 | 0.0 | 8.0 | 0.00 | 0.00 | 0.00 | 43 | 1018.0 |
| 20260502231438 | 25 | 296 | 0.0 | 11.3 | 0.00 | 0.00 | 0.00 | 44 | 1018.0 |
| 20260502230936 | 25 | 249 | 0.0 | 19.3 | 0.00 | 0.00 | 0.00 | 45 | 1018.0 |
| 20260502230434 | 25 | 273 | 6.4 | 16.1 | 0.00 | 0.00 | 0.00 | 44 | 1018.0 |
| 20260502225931 | 26 | 283 | 0.0 | 4.8 | 0.00 | 0.00 | 0.00 | 44 | 1018.2 |
| 20260502225427 | 26 | 198 | 0.0 | 0.0 | 0.00 | 0.00 | 0.00 | 45 | 1018.4 |
| 20260502224924 | 25 | 54 | 0.0 | 8.0 | 0.00 | 0.00 | 0.00 | 45 | 1018.2 |
| 20260502224420 | 25 | 5 | 0.0 | 0.0 | 0.00 | 0.00 | 0.00 | 44 | 1018.3 |
| 20260502223917 | 25 | 266 | 0.0 | 8.0 | 0.00 | 0.00 | 0.00 | 45 | 1018.4 |
| 20260502223415 | 25 | 252 | 0.0 | 4.8 | 0.00 | 0.00 | 0.00 | 44 | 1018.7 |
| 20260502222914 | 25 | 285 | 6.4 | 16.1 | 0.00 | 0.00 | 0.00 | 45 | 1018.6 |
| 20260502222410 | 25 | 271 | 0.0 | 8.0 | 0.00 | 0.00 | 0.00 | 47 | 1018.6 |
| 20260502221905 | 25 | 230 | 0.0 | 0.0 | 0.00 | 0.00 | 0.00 | 46 | 1018.7 |
| 20260502221402 | 23 | 244 | 3.2 | 24.1 | 0.00 | 0.00 | 0.00 | 48 | 1018.7 |
| 20260502220859 | 25 | 246 | 1.6 | 4.8 | 0.00 | 0.00 | 0.00 | 46 | 1018.8 |
| 20260502220355 | 23 | 324 | 4.8 | 24.1 | 0.00 | 0.00 | 0.00 | 47 | 1018.6 |
| 20260502215852 | 23 | 349 | 9.7 | 16.1 | 0.00 | 0.00 | 0.00 | 48 | 1018.7 |
| 20260502215350 | 25 | 311 | 6.4 | 11.3 | 0.00 | 0.00 | 0.00 | 47 | 1018.9 |
| 20260502214846 | 25 | 166 | 0.0 | 0.0 | 0.00 | 0.00 | 0.00 | 46 | 1018.9 |
| 20260502214343 | 24 | 310 | 8.0 | 11.3 | 0.00 | 0.00 | 0.00 | 47 | 1019.0 |
| 20260502213840 | 24 | 265 | 0.0 | 8.0 | 0.00 | 0.00 | 0.00 | 48 | 1019.0 |
| 20260502213337 | 24 | 67 | 0.0 | 11.3 | 0.00 | 0.00 | 0.00 | 48 | 1019.0 |
| 20260502212836 | 23 | 71 | 0.0 | 11.3 | 0.00 | 0.00 | 0.00 | 50 | 1019.0 |
| 20260502212334 | 23 | 239 | 0.0 | 0.0 | 0.00 | 0.00 | 0.00 | 47 | 1019.2 |
| 20260502211831 | 22 | 266 | 0.0 | 4.8 | 0.00 | 0.00 | 0.00 | 52 | 1019.3 |
| 20260502211326 | 22 | 275 | 8.0 | 16.1 | 0.00 | 0.00 | 0.00 | 52 | 1019.3 |